Location: Cerda�ola
(41.4919°N, 2.1403°E)
Time: 00:59:20
(UTC+00:00)

Cosmos 2297 - Pass Details

Date: 29 March 2020
Orbit: 834 x 860 km, 71.0° (Epoch: 31 May)

Event Time Altitude Azimuth Distance (km) Brightness Sun altitude
Rises 19:09:35 0° 340° (NNW) 3,406 7.4 -11.1°
Reaches altitude 10° 19:12:06 10° 345° (NNW) 2,471 6.5 -11.5°
Maximum altitude 19:17:38 51° 62° (ENE) 1,057 3.9 -12.5°
Enters shadow 19:22:13 15° 134° (SE) 2,142 5.3 -13.3°
